www.pogodaiklimat.ru

Погода и климат >> Архив погоды >> Мексика >> Jalapa


ПОГОДА в Jalapa

  • Прогноз погоды в Jalapa
  • Монитор погоды в Jalapa
  • Климат города

АРХИВ ПОГОДЫ в Jalapa

Время (UTC), дата Ветер
(напр.,м/с)
 
Видим.   Явления Облачность Т
(С)
Тd
(С)
f
(%)
Тe
(С)
Тes
(С)
Комфортность P
(гПа)
Po
(гПа)
Тmin
(С)
Tmax
(С)
R
(мм)
R24
(мм)
S
(см)
00 7.12 Ю 1 10 км 9/9 600 м
[Sc]
+17.6 +16.0 90 +19 +19 1017.8 870.0 0.3
03 7.12 Ю 1 10 км 6/6 720 м
[Sc]
+15.8 +15.2 96 +16 +16 1019.3 871.4
09 7.12 Ю 1 100 м туман ?/? +15.0 +14.7 98 +15 +15 1019.6 870.0
12 7.12 Ю 1 10 км {туман} ясно +13.2 +12.6 96 +13 +13 1020.2 870.8 +13.0 +20.2
15 7.12 В 1 20 км 1/0
[Ci fib]
+18.2 +14.1 77 +20 +24 1022.4 872.5
00 8.12 В 1 12 км 10/10 600 м
[Sc]
+18.0 +16.8 93 +19 +19 1015.2 868.3 +12.2 +22.2
12 8.12 Ю 1 12 км ясно +11.8 +10.8 94 +12 +12 1015.6 867.0 +11.8 +22.2
15 8.12 Ю 1 20 км ясно +16.4 +14.0 86 +17 +21 1018.0 868.6
18 8.12 В 1
{1}
18 км 4/4 720 м
[Sc diur, vesp]
+22.8 +15.2 62 +27 +35 душно 1017.0 868.3 +11.0 +23.4
21 8.12 В 1
{1}
16 км 4/4 720 м
[Sc diur, vesp]
+24.8 +16.1 58 +28 +33 жарко 1013.3 866.2
00 9.12 В 1 4000 м в посл. час туман 10/10 300 м
[Sc]
+21.0 +17.9 82 +26 +26 душно 1012.6 866.8 +11.0 +25.2
03 9.12 Ю 1 10 км 6/6 660 м
[Sc]
+18.0 +17.0 94 +19 +19 1014.4 868.9
06 9.12 ЮЗ 1 1000 м туман 10/10 120 м
[St]
+16.8 +16.5 98 +18 +18 1016.2 870.0 +11.0 +25.2
12 9.12 С 1 4000 м 10/10 210 м
[St]
+16.0 +15.1 94 +17 +17 1017.3 869.3 +16.0 +25.2
15 9.12 ЮЗ 1 10 км 9/9 660 м
[Sc]
+16.6 +15.9 96 +17 +18 1019.5 870.9
18 9.12 С 1 12 км 9/9 660 м
[Sc]
+19.8 +13.4 67 +23 +24 комфорт 1019.1 870.8 +15.5 +20.4
21 9.12 СЗ 1 8000 м слабый дождь 10/10 600 м
[Sc]
+14.6 +13.4 93 +15 +15 1017.9 869.8 5
00 10.12 В 1 8000 м слабый дождь {туман} 10/10 300 м
[St]
+13.2 +12.4 95 +13 +13 1019.2 870.6 8
03 10.12 В 1 500 м туман {морось} ?/? +12.8 +11.5 92 +13 +13 1020.7 871.5 2
12 10.12 СВ 1 5000 м {морось, туман} 10/10 600 м
[Sc]
+11.6 +10.3 92 +11 +11 1022.2 871.2 0.6
15 10.12 Ю 1 12 км 10/10 720 м
[Sc diur, vesp]
+12.4 +11.3 93 +12 +12 1025.9 874.2
18 10.12 СЗ 1 10 км слабая морось 10/10 600 м
[Sc]
+13.2 +11.3 88 +13 +13 1025.1 873.7 0.4
21 10.12 Ю 1 10 км слабая морось 10/10 600 м
[Sc]
+13.0 +11.7 92 +13 +13 1023.1 872.1 0.3
00 11.12 З 1 6000 м сильная морось {туман} 10/10 600 м
[Sc]
+12.0 +10.9 93 +12 +12 1023.9 872.9 5
03 11.12 З 1 500 м туман {морось} ?/? +11.0 +9.7 92 +11 +11 1025.7 874.3 2
12 11.12 Ю 1 6000 м {морось, туман} 10/10 600 м
[Sc]
+9.8 +8.6 92 +9 +9 1026.4 873.8 0.6
15 11.12 Ю 1
{1}
14 км 10/10 660 м
[Sc diur, vesp]
+11.0 +10.1 94 +11 +11 1029.1 876.0
18 11.12 Ю 1 16 км 10/10 660 м
[Sc diur, vesp]
+14.8 +10.5 75 +15 +15 1027.5 875.0 +8.7 +15.1
21 11.12 Ю 1 14 км 10/10 660 м
[Sc diur, vesp]
+14.8 +11.3 80 +15 +15 1023.5 872.2
00 12.12 Ю 1 4000 м в посл. час туман 10/10 300 м
[Sc]
+12.4 +11.7 95 +12 +12 1022.9 872.2 +8.7 +15.1
03 12.12 Ю 1 <100 м слабая морось {туман} туман ?/? +11.8 +11.4 97 +12 +12 1023.7 873.0 0.7
12 12.12 Ю 1 10 км ясно +8.6 +7.9 95 +8 +8 1020.8 869.3 +8.4 +15.5
15 12.12 В 1 20 км 3/0
[Cs]
+13.6 +10.7 83 +14 +18 1021.9 870.1
18 12.12 Ю 1 20 км 3/0
[Cs]
+20.8 +13.9 65 +25 +38 комфорт 1019.3 868.7 +8.0 +21.2
21 12.12 20 км 5/3 720 м
[Cu hum Cs]
+22.2 +12.8 55 1014.9 866.3
00 13.12 В 1 20 км 8/4 600 м
[Sc Cs]
+18.6 +14.7 78 +20 +20 1013.6 866.5 +8.0 +22.5
03 13.12 Ю 1 10 км 5/1 870 м
[Sc Ac trans Ci fib]
+13.8 +12.2 90 +14 +14 1013.0 866.5
12 13.12 Ю 1 10 км 3/0
[Ci fib]
+12.6 +9.3 80 +13 +13 1013.0 863.9 +12.4 +22.5
15 13.12 З 1 20 км 1/1 840 м
[Sc]
+20.4 +7.0 42 +23 +26 комфорт 1013.6 864.6
18 13.12 З 1 20 км 3/1 840 м
[Sc Ci fib]
+27.6 -0.9 15 +25 +37 комфорт 1010.4 863.3 +12.3 +27.8
21 13.12 В 1 18 км 3/1 800 м
[Cu hum Ci fib]
+28.0 +2.2 19 +26 +33 жарко 1006.4 861.6

 

Местоположение метеостанции Jalapa (Мексика): широта 19.55 долгота -96.91 высота над уровнем моря 1389 м.

В архиве по умолчанию представлена погода в Jalapa за последнюю неделю. Архивные данные за месяц целиком и за предыдущие месяцы, начиная с января 2011 года, Вы можете получить, выбрав интересующий диапазон дат из раскрывающегося списка и нажав кнопку "Ввод!".


*Определитесь, кто Вы:
робот инопланетянин человек

Внимание! Время в таблицах - всемирное. Для получения местного времени необходимо прибавить поправку, которая в Jalapa равна -6 ч.

Смотрите также архив погоды в соседних городах и на ближайших метеорологических станциях:

Погода в Cordoba-In-Veracruz (Мексика) (72 км)
Погода в Orizaba (Мексика) (80 км)
Погода в Verakruz (Мексика) (95 км)
Погода в Tlaxcala Airport (Мексика) (142 км)
Погода в Puebla (Мексика) (143 км)
Погода в Tlaxcala (Мексика) (143 км)
Погода в Tulancingo (Мексика) (164 км)
Погода в Tuxpan (Мексика) (164 км)
Погода в Pachuca (Мексика) (203 км)
Погода в Huajuapan De Leon (Мексика) (215 км)

Пояснения к столбцам:

Ветер - указаны скорость ветра в м/с - средняя за 10 мин, порывы в срок и между сроками (в фигурных скобках) и направление, откуда дует ветер: С - северный, СВ - северо-восточный, В - восточный, ЮВ - юго-восточный, Ю - южный, ЮЗ - юго-западный, З - западный, СЗ - северо-западный.
Видимость - горизонтальная дальность видимости в метрах или километрах. При видимости от 1 до 10 км при отсутствии осадков обычно наблюдается дымка, при ухудшении видимости до 1 км и менее - туман. В сухую погоду видимость может ухудшаться дымом, пылью или мглою.
Явления - указаны атмосферные явления, наблюдавшиеся в срок или в последний час перед сроком; фигурными скобками обозначены явления, наблюдавшиеся между сроками (за 1-3 часа до срока); квадратными скобками обозначены град или гололедные отложения с указанием их диаметра в мм.
Облачность - указаны через наклонную черту общая и нижняя облачность в баллах и высота нижней границы облаков в метрах; квадратными скобками обозначены формы облаков: Ci - перистые, Cs - перисто-слоистые, Cc - перисто-кучевые, Ac - высококучевые, As - высокослоистые, Sc - слоисто-кучевые, Ns - слоисто-дождевые, Cu - кучевые, Cb - кучево-дождевые. Подробнее классификацию облаков см. в Атласе облаков (PDF).
T - Температура воздуха - температура, измеренная на высоте 2 м над землей.
Td - Температура точки росы - температура, при понижении до которой содержащийся в воздухе водяной пар достигнет насыщения.
f - Относительная влажность воздуха - влажноcть воздуха, измеренная на высоте 2 м над землей.
Te - Эффективная температура - температура, которую ощущает одетый по сезону человек в тени. Характеристика душности погоды. При расчете учитывается влияние влажности воздуха и скорости ветра на теплоощущения человека.
Tes - Эффективная температура на солнце - температура, которую ощущает человек, с поправкой на солнечный нагрев. Характеристика знойности погоды. Зависит от высоты солнца над горизонтом, облачности и скорости ветра. Ночью, в пасмурную погоду, а также при ветре 12 м/с и более поправка равна нулю.
P - Атмосферное давление - приведенное к уровню моря атмосферное давление.
Po - Атмосферное давление - измеренное на уровне метеостанции атмосферное давление.
Tmin - Минимальная температура - минимум температуры воздуха на высоте 2 м над землей.
Tmax - Максимальная температура - максимум температуры воздуха на высоте 2 м над землей.
R - Количество осадков - Количество выпавших осадков за период времени, мм. При наведении курсора мыши на число - период времени, за который выпало указанное количество осадков.
R24 - Количество осадков - Количество выпавших осадков за 24 часа, мм.
S - Снежный покров - Высота снежного покрова, см. При наведении курсора мыши на число - состояние снежного покрова и степень покрытия местности в баллах.